Theta_e
301 302 302 302 303 303 305 305 304 304 305 305 305 306 306 306 307 305 304 306 301 295 292 296 298 292 292 289 284 289 292 290 287 282 281 281 281 283 288 291 290 287 285 283 286 281 278 296 295 287 289 292 291 289
300 301 302 302 302 303 304 305 304 304 304 305 305 306 306 306 307 307 301 305 304 297 294 299 300 301 299 297 291 291 290 291 291 284 282 284 280 283 284 284 296 287 287 286 286 285 294 298 293 298 295 291 290 288
299 300 301 302 302 302 303 304 304 304 304 304 305 305 305 306 307 305 303 303 299 293 292 291 294 300 302 300 298 290 291 295 294 292 286 285 281 284 278 285 288 292 297 291 290 294 297 298 299 296 293 290 290 290
299 299 300 301 302 302 303 304 304 304 304 304 304 305 305 306 307 306 302 303 300 295 288 292 303 299 302 300 298 297 296 296 295 293 286 284 281 286 283 285 284 288 294 290 292 294 297 298 295 292 291 292 292 292
298 299 300 301 301 302 303 303 304 304 304 304 304 305 305 306 307 304 303 304 303 296 290 290 295 297 301 301 299 298 295 293 292 289 285 282 284 285 286 286 284 289 288 285 285 293 292 289 291 292 291 291 291 289
298 299 300 301 301 301 303 303 304 304 304 304 305 305 305 306 306 301 296 303 304 302 293 288 295 299 300 301 299 297 296 294 293 289 287 285 287 286 284 285 290 295 295 293 292 293 290 291 292 293 291 290 290 289
299 299 300 301 301 301 302 303 304 304 305 304 304 305 305 305 302 297 295 301 305 303 294 288 290 298 300 299 297 296 295 293 292 291 290 289 286 292 288 285 290 296 296 294 293 292 289 290 288 292 291 291 291 290
299 299 300 301 301 301 301 303 303 305 304 304 304 305 306 306 304 299 303 305 304 298 296 286 287 293 299 291 291 295 292 293 292 291 291 286 289 285 281 288 294 298 295 292 292 291 290 291 291 290 290 289 287 287
299 299 300 300 301 301 301 302 303 305 305 304 305 306 302 300 295 298 306 304 301 296 288 286 283 282 299 293 293 293 293 287 292 288 288 289 288 285 287 291 296 296 291 290 291 291 290 289 289 288 288 288 287 287
299 299 300 300 301 301 301 302 303 304 305 305 302 297 292 297 306 303 297 293 292 292 291 287 286 286 295 292 289 290 290 288 284 287 290 287 286 291 295 297 299 299 294 292 288 286 288 287 287 287 288 289 289 289
300 299 300 301 301 301 302 303 304 305 304 299 293 291 298 303 297 293 288 287 288 284 287 288 285 289 296 289 288 291 287 288 283 285 285 285 285 290 298 298 298 294 294 292 291 290 289 288 288 288 289 290 291 290
300 300 300 301 301 301 302 303 304 301 297 297 296 298 297 293 290 287 285 287 286 282 285 285 283 290 292 295 289 289 286 287 281 291 287 285 289 296 297 295 292 293 292 290 291 290 290 290 290 290 289 289 290 291
300 300 300 301 301 302 302 303 304 303 301 298 294 290 288 288 282 282 279 283 282 288 289 288 288 289 288 290 284 287 284 283 292 286 284 287 289 295 292 293 293 292 291 292 291 291 291 291 292 291 290 291 292 291
300 300 301 301 301 302 302 302 303 301 297 290 287 281 283 282 283 284 284 288 293 290 290 289 288 286 288 284 286 282 286 288 285 283 284 289 291 295 293 293 292 290 290 289 290 290 290 290 291 292 292 292 292 291
300 300 300 301 301 302 303 304 303 300 295 288 288 282 284 287 290 292 294 294 295 295 293 290 289 289 287 284 286 285 285 284 286 283 287 289 290 291 290 289 288 288 288 288 288 288 289 289 290 291 291 291 293 291
300 300 300 303 302 302 303 303 301 298 294 290 288 285 289 289 289 291 292 292 294 294 295 292 288 286 286 286 285 285 286 283 285 286 288 290 291 290 289 289 289 289 287 287 288 288 288 288 290 290 290 291 292 290
299 295 301 302 302 302 302 298 296 292 289 288 286 289 289 288 289 292 293 294 296 293 289 289 286 286 290 286 286 288 285 287 287 287 290 291 289 287 288 289 289 289 287 286 286 288 288 288 290 289 287 288 290 289
293 298 301 302 301 300 296 297 291 290 286 288 285 289 293 295 293 294 296 296 294 292 292 289 293 287 286 286 286 288 287 287 289 291 290 288 287 287 288 287 288 289 287 286 286 287 288 287 286 286 286 287 289 289
296 300 301 302 300 296 291 292 293 286 287 288 290 292 295 296 296 296 293 293 294 296 294 292 290 287 287 290 289 288 288 289 288 287 285 286 287 287 287 287 287 286 286 285 285 285 286 286 285 286 286 286 286 287
300 300 301 302 301 294 290 290 294 289 286 291 294 295 293 290 292 292 292 292 291 293 291 291 289 291 290 292 291 289 288 289 288 285 284 285 286 287 287 286 284 285 285 286 286 287 286 286 286 286 286 286 284 283
299 301 302 300 296 295 293 292 288 288 291 288 291 291 289 294 289 289 289 291 288 288 291 293 294 295 296 293 292 291 289 289 288 288 286 285 287 288 287 288 287 286 285 285 285 285 285 284 284 285 285 285 286 284
299 302 297 298 293 293 291 292 288 289 288 287 288 291 289 286 287 290 291 287 286 292 295 295 296 294 293 292 291 291 290 289 288 288 289 289 287 287 287 288 288 286 285 284 285 284 284 284 284 284 284 283 284 284
300 299 294 294 290 288 284 291 288 287 285 288 289 288 289 288 290 294 288 289 290 298 297 298 297 293 290 291 291 290 291 289 287 287 288 288 289 289 288 287 287 286 285 284 284 284 284 284 283 283 282 282 282 281
300 294 290 289 288 285 289 286 288 289 287 285 283 286 288 288 292 289 287 289 294 298 296 297 295 288 289 290 289 288 287 288 288 289 289 289 287 286 287 285 286 285 284 283 282 282 281 281 282 280 280 280 279 279
288 288 289 285 290 287 286 286 286 284 284 286 286 286 286 288 286 285 288 291 295 295 296 295 290 288 287 286 287 286 288 291 289 288 287 288 286 286 284 283 282 282 282 282 280 280 279 279 279 279 279 278 278 278
283 286 284 287 287 287 289 286 285 287 287 287 288 292 292 286 286 286 290 293 295 296 295 294 290 288 287 288 287 287 288 291 291 289 287 287 287 285 283 281 279 279 281 281 280 280 279 279 279 279 278 278 279 278
283 283 289 291 289 290 288 290 292 289 288 287 289 290 289 284 285 289 294 297 297 296 297 296 293 290 289 289 289 289 289 290 290 290 290 289 287 286 285 281 279 279 281 282 281 280 279 278 278 278 277 276 277 277
287 289 285 286 286 288 287 289 288 286 288 292 292 288 286 286 285 291 293 298 300 298 294 293 293 293 292 291 291 290 289 289 290 289 289 287 287 286 285 284 282 283 282 281 281 280 279 278 278 278 277 276 275 276
286 289 292 290 288 287 287 287 287 289 291 291 289 287 285 289 291 292 295 296 298 296 292 291 291 292 292 292 291 290 290 289 287 284 283 282 281 281 282 281 281 281 280 280 281 280 279 278 278 277 277 276 276 276
286 290 290 290 288 287 287 290 290 291 291 292 291 288 288 290 293 296 294 294 295 293 293 292 292 292 290 290 289 290 290 289 289 286 283 282 282 282 281 281 280 279 279 279 278 277 278 277 277 276 276 275 275 274
288 289 290 289 286 288 290 291 291 292 291 290 292 289 288 290 293 296 294 292 292 293 292 290 291 292 292 291 290 288 286 288 289 288 286 284 283 282 281 280 279 279 278 278 277 275 275 274 274 274 274 274 274 274
288 288 288 285 285 289 290 289 288 288 289 288 288 290 289 289 287 292 294 292 291 291 290 292 292 290 291 288 288 288 286 287 286 286 285 284 283 282 282 281 280 280 278 277 276 275 275 274 273 273 273 273 273 273
289 289 288 287 285 286 288 288 287 286 286 286 286 287 288 288 286 290 294 292 292 290 290 288 288 287 287 286 285 283 282 281 281 281 281 282 283 282 281 280 280 279 278 276 275 274 273 271 267 265 264 263 262 262
Wind_Speed
20 20 20 20 20 21 20 19 18 16 15 16 16 16 15 13 13 5 4 2 2 2 5 2 2 2 1 2 3 3 2 4 3 3 3 2 1 2 2 3 5 5 6 4 4 4 7 3 2 0 4 2 2 3
20 20 20 19 20 20 20 19 16 17 17 15 16 15 13 13 13 6 3 1 0 2 4 2 5 5 6 5 5 1 4 1 2 4 2 2 2 3 1 2 3 4 4 4 5 2 2 1 3 2 2 2 4 3
21 21 21 19 20 19 19 21 16 15 15 16 15 14 13 13 14 1 3 0 1 1 4 3 3 2 3 5 3 5 2 1 3 2 3 1 1 2 1 1 2 2 3 2 2 5 6 3 3 6 6 6 5 5
20 21 21 20 19 18 19 19 19 17 15 16 17 13 13 13 13 3 2 0 1 2 1 4 3 3 2 5 3 3 6 4 4 3 3 2 1 1 2 2 2 4 5 5 3 1 4 2 5 7 7 7 6 5
20 20 20 20 20 19 19 19 19 18 16 14 16 14 11 11 11 2 2 3 2 1 1 4 5 4 5 9 10 7 7 5 3 3 2 2 2 1 1 2 3 3 5 5 5 7 5 3 6 7 8 5 5 5
18 18 19 19 20 20 20 18 18 21 15 13 14 11 11 11 6 1 2 1 3 2 1 2 2 2 5 10 10 8 4 4 3 3 1 2 3 2 1 3 4 3 3 5 4 4 8 9 7 5 6 4 5 5
18 18 18 18 19 20 20 19 20 18 15 10 11 11 12 10 1 2 0 2 4 2 1 2 2 3 8 4 3 3 4 2 2 1 1 1 2 2 2 3 4 3 4 4 10 14 6 1 5 4 5 5 5 5
17 18 18 17 19 19 19 19 20 19 9 10 12 13 13 3 3 1 1 4 2 2 1 0 1 2 1 2 2 1 2 1 1 1 1 2 2 2 4 7 3 5 4 7 8 8 9 8 6 5 4 4 8 8
15 18 17 16 18 18 18 19 20 18 9 10 12 10 1 2 1 1 10 7 2 2 2 2 2 3 3 2 2 1 2 1 1 2 2 2 3 5 6 4 4 3 5 9 10 12 9 8 6 5 5 4 5 9
16 18 18 17 18 18 17 19 19 17 12 10 3 1 2 2 7 3 3 2 3 3 2 0 1 2 2 2 2 2 1 2 3 4 2 3 3 5 4 7 6 3 9 11 13 6 6 6 6 4 4 2 3 5
16 16 17 18 18 17 17 17 17 16 5 2 3 2 2 6 3 2 2 1 1 1 2 1 3 1 3 2 2 1 2 1 2 2 3 3 3 3 6 9 9 5 10 7 8 6 6 8 6 5 3 2 2 2
18 14 15 17 17 17 17 15 15 3 2 2 1 1 2 3 1 1 0 1 2 3 3 3 4 2 1 2 2 2 2 2 3 4 3 3 1 5 8 6 7 8 11 10 9 9 7 7 6 5 3 1 2 1
17 16 16 16 15 15 15 14 12 5 2 2 2 2 2 1 1 2 2 2 2 3 4 3 3 2 2 3 1 2 3 4 0 3 2 2 1 4 6 7 9 8 9 8 7 6 6 4 5 4 3 3 3 1
17 17 17 17 16 18 14 12 5 1 2 2 1 1 2 3 4 3 2 1 2 2 4 4 3 2 1 2 2 2 3 2 4 4 3 5 6 4 5 6 11 7 7 7 7 6 5 4 4 4 1 2 3 1
16 17 18 13 9 8 8 6 5 2 1 1 1 3 4 2 4 3 5 2 2 2 4 4 3 2 1 1 2 2 3 5 2 2 2 3 7 8 7 7 8 7 7 6 5 5 5 4 5 3 3 4 6 1
14 14 2 10 6 5 3 1 1 1 1 1 2 3 4 4 2 2 2 1 2 3 2 1 3 2 3 3 4 6 3 1 2 3 3 7 8 8 7 6 7 6 6 6 5 4 5 5 5 4 4 5 6 3
6 3 7 8 4 2 4 1 1 1 1 2 3 3 5 6 5 1 2 2 3 3 1 1 3 3 3 3 3 2 1 2 5 5 5 8 8 7 7 7 6 7 7 6 5 5 5 5 5 3 6 4 5 5
4 3 9 8 0 0 2 2 2 1 3 4 3 3 2 3 2 1 0 2 2 2 1 2 2 2 2 2 1 0 3 3 4 7 5 6 6 6 7 8 6 7 7 6 6 5 6 7 6 3 5 4 5 2
5 1 7 4 2 0 1 1 0 2 4 3 4 4 3 2 1 1 2 1 1 1 1 1 3 2 1 2 2 3 4 6 6 3 4 4 7 7 7 7 7 7 7 4 5 4 4 5 4 3 4 4 4 3
8 7 7 4 2 1 2 1 1 3 4 2 3 3 2 1 2 2 2 2 1 0 2 2 1 2 2 1 2 4 4 6 7 6 4 2 2 6 6 6 5 6 6 5 5 5 4 4 4 4 4 5 5 4
4 1 4 1 0 1 3 1 3 4 3 2 2 2 0 1 2 2 2 1 2 1 2 2 2 3 1 3 4 6 5 7 6 7 5 3 1 4 4 4 5 4 4 4 4 4 5 4 2 4 5 5 4 5
1 3 2 1 1 2 3 3 3 3 1 3 3 2 2 2 1 1 1 2 1 2 2 2 2 2 3 6 4 6 6 6 7 5 7 7 5 5 5 3 6 4 4 3 3 4 3 3 4 4 6 5 5 5
5 1 1 2 2 1 6 1 2 2 1 2 3 3 2 2 0 0 2 2 3 3 2 1 3 1 4 5 6 6 6 7 5 5 6 5 6 6 6 4 4 7 5 4 3 4 4 5 6 5 5 6 5 5
3 1 3 3 4 4 2 2 2 2 1 1 1 2 1 1 1 1 2 2 2 1 1 3 3 4 5 6 4 3 4 5 6 5 6 9 8 5 6 5 5 4 4 4 4 5 5 5 6 5 5 6 6 5
2 3 3 3 2 3 3 2 2 1 3 4 3 2 2 2 1 2 1 1 0 2 1 3 2 2 5 3 4 4 4 10 9 8 3 7 10 7 6 5 4 3 1 6 4 6 5 5 5 6 6 5 6 6
3 4 6 4 3 3 3 2 3 4 3 2 1 2 2 2 1 1 1 2 2 2 1 1 3 3 4 3 6 5 4 5 9 8 4 4 5 10 8 6 4 3 3 4 5 6 6 5 6 7 6 7 8 6
3 4 4 3 2 3 1 2 2 2 0 2 1 2 2 1 1 1 2 1 3 1 3 3 4 5 6 5 5 5 4 4 4 6 7 6 4 3 7 8 6 3 3 6 5 6 7 6 6 6 6 5 5 5
4 3 4 2 2 1 1 1 1 2 2 3 2 2 2 1 1 2 2 3 2 4 4 4 4 8 9 8 8 9 7 8 10 11 10 8 6 4 6 6 5 10 6 5 6 6 6 6 6 6 6 6 5 5
3 3 1 2 1 2 1 1 1 1 2 2 2 1 1 1 1 2 2 3 1 3 3 6 5 8 8 7 5 6 9 10 14 13 11 6 4 2 3 5 6 6 6 7 8 7 8 7 7 6 7 5 4 4
4 4 4 2 2 2 1 1 1 1 1 1 1 2 1 1 2 2 2 3 3 3 3 4 8 8 10 10 8 4 3 2 6 11 10 7 6 5 5 6 7 6 6 7 7 6 6 6 5 6 6 5 4 4
2 3 3 2 2 1 1 1 1 0 1 2 1 1 1 2 2 1 2 2 2 3 6 5 6 6 9 8 7 7 3 2 6 7 8 8 8 8 7 6 6 6 6 6 5 5 6 5 5 6 6 7 7 6
2 3 4 3 2 1 1 0 0 1 1 1 1 1 1 1 1 2 1 3 2 5 5 8 9 4 4 4 4 4 7 8 9 9 13 8 8 8 8 7 6 6 7 7 6 5 7 6 5 5 6 8 7 7
1 3 3 3 2 2 2 2 2 1 0 1 1 1 1 2 3 3 2 1 1 1 5 5 5 6 7 7 7 7 7 6 8 9 10 10 12 10 7 6 6 8 9 7 6 7 7 9 6 6 6 6 5 5
Wind_Direction
327 327 327 327 328 328 327 324 322 322 320 322 323 316 316 320 324 326 280 209 217 219 279 257 281 196 38 100 143 260 68 357 34 67 112 240 172 282 56 123 159 168 173 176 168 184 255 346 336 250 218 305 72 20
325 324 324 325 325 326 326 320 312 317 320 318 315 311 318 322 322 326 272 328 58 192 248 290 259 239 187 188 146 44 156 117 154 91 45 83 19 5 239 157 161 185 184 159 165 222 205 11 153 318 355 78 30 29
328 325 324 324 324 325 322 324 317 310 314 316 312 314 320 315 317 272 273 144 360 54 306 342 290 355 160 197 164 117 338 108 74 155 136 111 44 139 40 71 110 357 125 189 142 213 217 348 308 62 64 75 44 49
323 325 321 324 323 325 323 320 324 317 309 311 309 304 311 311 321 312 295 156 58 96 67 289 310 355 30 113 101 113 124 63 102 63 79 98 156 160 250 239 160 211 152 191 216 177 160 195 52 102 72 60 47 23
322 320 317 323 322 326 322 321 319 324 308 297 301 298 294 312 323 296 236 224 190 213 257 285 304 340 127 107 92 87 94 87 60 65 76 200 245 87 228 356 252 199 190 154 215 182 131 86 93 88 82 63 42 11
320 318 316 322 326 327 322 316 323 321 313 291 300 305 316 314 312 314 292 177 186 172 54 349 316 41 101 98 87 72 64 72 79 115 179 258 258 118 223 244 269 201 188 173 155 123 101 110 95 83 94 72 42 21
322 314 319 326 321 323 323 327 326 322 321 305 316 313 307 308 262 248 302 324 153 105 118 325 6 91 113 82 58 58 36 61 91 94 239 230 283 88 260 236 264 236 186 128 113 112 80 117 120 109 99 64 28 5
318 322 325 326 322 323 325 326 327 330 322 312 311 306 306 307 129 224 354 91 93 108 97 134 262 132 120 88 91 26 84 80 135 170 210 225 260 146 244 242 276 199 90 69 94 78 112 122 114 106 95 63 33 5
323 323 320 319 321 324 323 326 324 329 308 312 313 320 352 358 86 304 106 86 40 75 136 112 188 181 113 78 69 77 100 169 99 212 241 163 221 209 226 196 79 26 136 125 96 106 112 120 132 107 83 59 39 9
318 314 320 324 327 324 326 323 322 329 321 307 306 347 27 320 120 114 3 31 26 7 29 203 118 179 110 122 137 165 77 223 212 210 140 226 254 250 217 157 129 307 125 136 118 122 146 122 113 104 93 90 74 1
307 310 319 324 322 324 326 321 324 330 336 42 20 22 296 316 38 24 50 42 109 284 196 230 195 124 17 133 126 232 182 231 247 196 200 223 250 206 155 157 186 144 145 163 115 119 137 136 143 134 115 119 71 332
323 318 318 320 322 322 324 322 330 6 32 8 95 5 354 17 324 311 162 245 219 238 165 163 213 191 74 94 117 180 232 183 255 144 219 235 251 186 157 134 114 127 114 106 121 130 144 146 149 144 148 181 116 285
322 321 318 316 312 312 317 320 337 91 54 355 36 44 8 3 303 256 204 226 231 171 156 147 105 86 42 34 79 189 234 234 223 215 221 341 254 92 113 109 107 123 111 121 122 136 150 157 149 160 195 234 134 289
320 318 317 314 309 303 305 311 299 28 22 360 13 327 230 187 246 234 269 279 279 120 112 108 92 96 114 74 159 222 227 297 245 203 183 167 203 190 117 108 120 121 126 116 134 148 140 144 134 169 308 310 101 325
317 317 315 313 334 333 324 312 145 11 2 325 284 260 228 285 291 302 291 240 66 89 99 97 97 113 133 179 198 236 237 229 231 156 146 139 132 122 108 105 111 108 103 102 104 108 100 90 119 162 5 50 99 24
316 317 314 344 321 327 359 157 344 341 2 305 261 285 262 261 304 329 287 95 113 122 116 140 128 176 207 206 205 215 235 204 148 141 137 114 112 117 114 109 106 106 103 104 98 94 76 67 119 157 63 65 112 57
312 245 322 334 329 77 36 56 355 292 307 266 253 256 265 272 264 336 285 143 137 137 142 201 223 230 170 211 235 202 248 147 131 104 100 122 125 127 114 106 107 103 93 87 89 90 82 60 82 102 55 57 126 79
234 277 318 311 164 295 331 9 317 289 260 252 257 262 257 268 275 307 36 106 142 127 210 233 274 255 260 293 268 83 85 77 83 113 118 109 109 108 111 111 110 114 100 86 80 85 76 63 62 52 50 56 83 85
225 220 334 304 213 99 313 292 85 276 256 248 255 244 256 255 220 35 93 50 75 141 337 264 252 265 223 200 168 109 116 124 126 101 94 121 125 116 105 98 98 103 98 93 82 87 87 76 81 67 48 59 75 61
224 284 288 253 318 320 264 226 164 266 270 271 269 312 291 323 115 88 66 26 34 296 250 229 209 257 222 223 121 126 114 124 114 104 81 49 96 105 113 115 115 122 98 82 67 84 86 65 39 50 58 67 67 37
152 117 110 132 243 299 278 263 234 223 273 286 293 311 92 70 61 43 357 347 47 10 322 306 301 282 210 63 101 118 119 128 134 137 147 129 74 110 95 106 105 97 96 84 83 63 69 78 60 52 68 60 63 48
126 148 118 159 227 244 249 241 231 267 294 260 328 337 83 62 10 23 324 33 281 258 252 243 293 344 120 130 146 131 129 103 92 87 79 101 99 96 88 103 105 87 84 94 96 102 100 70 61 60 71 60 56 54
156 164 76 187 272 317 260 2 240 248 265 311 18 345 44 30 12 335 342 247 257 251 215 298 332 349 118 98 94 90 107 109 100 101 96 91 92 96 95 67 94 109 95 43 61 82 88 65 61 70 63 56 53 43
192 207 208 209 199 266 254 254 228 250 200 50 152 246 170 207 88 306 280 290 275 288 341 348 11 77 66 96 105 123 107 106 99 93 107 109 98 69 85 86 78 70 95 111 78 77 70 69 64 63 56 59 46 45
204 218 211 237 206 238 249 225 214 154 245 204 204 228 220 108 197 216 238 235 260 284 295 351 87 108 117 92 71 79 117 133 134 122 93 114 113 97 80 65 63 54 59 97 79 90 78 68 66 70 60 55 55 46
225 227 180 212 225 197 236 233 224 217 221 206 137 167 163 163 247 254 291 134 160 206 282 16 159 103 59 119 134 133 143 134 122 122 126 146 139 134 133 123 102 32 17 103 108 103 94 82 83 84 68 51 46 48
240 256 224 238 224 277 343 348 346 337 218 236 250 190 182 225 234 257 303 164 187 239 242 223 166 133 129 107 85 73 75 73 102 122 115 105 94 105 130 133 135 171 128 104 103 113 113 106 99 96 84 58 41 38
243 266 208 221 234 229 168 157 65 311 324 337 313 180 203 259 190 326 314 319 60 6 6 59 86 124 123 123 122 111 95 99 97 96 84 59 45 60 87 87 86 103 94 92 101 97 97 101 101 103 96 78 54 27
243 262 52 265 132 65 83 37 75 51 335 309 320 159 223 261 275 318 298 292 80 68 86 97 83 100 98 94 88 110 127 134 128 123 119 126 111 42 68 94 92 92 93 88 71 89 95 93 94 93 91 82 63 35
249 181 182 188 159 173 97 81 91 5 339 335 27 38 21 338 298 304 324 27 22 319 151 148 134 136 131 132 129 94 35 127 151 145 153 169 173 148 122 114 113 109 107 106 107 100 80 83 76 74 73 64 48 40
169 113 104 95 128 119 167 168 86 36 16 12 38 83 345 312 301 284 1 335 269 192 144 139 122 135 134 140 146 137 110 22 116 108 106 115 123 126 123 117 112 110 109 109 108 107 103 89 87 86 80 72 57 49
53 120 133 136 170 176 131 95 282 254 150 87 60 144 225 22 302 305 183 337 93 140 151 147 137 138 115 95 87 89 114 129 129 128 124 124 121 124 121 118 115 117 115 109 105 105 102 100 96 88 82 77 62 50
84 88 93 109 116 163 178 205 204 216 96 167 201 212 214 188 238 262 308 71 168 151 131 107 90 90 97 101 113 103 89 89 93 98 107 120 129 129 126 124 125 123 117 114 111 110 103 103 97 95 91 84 65 42